This is the latest recevied weather packets stored in our database for station/object KE8WAY. If no packets are shown the sender has not sent any weather packets the latest 10 day(s).
| Time | Temp. | Humidity | Pressure | Rain* | Wind** | Luminosity | Snow |
|---|---|---|---|---|---|---|---|
| 1777646550 | 6.11° C | 86% | 1012.5 hPa | 0 mm | - | 146 W/m² | - |
| 1777646247 | 6.11° C | 87% | 1012.7 hPa | 0 mm | - | 194 W/m² | - |
| 1777645944 | 6.11° C | 87% | 1012.8 hPa | 1.78 mm | - | 159 W/m² | - |
| 1777645640 | 6.11° C | 88% | 1012.5 hPa | 1.78 mm | - | 144 W/m² | - |
| 1777645336 | 6.11° C | 89% | 1012.8 hPa | 0 mm | - | 148 W/m² | - |
| 1777645032 | 5.56° C | 89% | 1012.8 hPa | 0 mm | - | 126 W/m² | - |
| 1777644729 | 5.56° C | 88% | 1012.8 hPa | 0 mm | - | 89 W/m² | - |
| 1777644426 | 5.56° C | 90% | 1012.8 hPa | 0 mm | - | 70 W/m² | - |
| 1777644123 | 5.56° C | 90% | 1012.7 hPa | 0 mm | - | 65 W/m² | - |
| 1777643819 | 5.56° C | 89% | 1012.6 hPa | 0 mm | - | 74 W/m² | - |
| 1777643516 | 5.56° C | 89% | 1012.4 hPa | 1.27 mm | - | 71 W/m² | - |
| 1777643213 | 5.56° C | 89% | 1012.4 hPa | 1.27 mm | - | 65 W/m² | - |
| 1777642909 | 5.56° C | 90% | 1012.3 hPa | 0 mm | - | 62 W/m² | - |
| 1777642607 | 5.56° C | 90% | 1012.4 hPa | 0 mm | - | 50 W/m² | - |
| 1777642303 | 5.56° C | 91% | 1012.3 hPa | 0 mm | - | 45 W/m² | - |
| 1777642000 | 5.56° C | 92% | 1012.3 hPa | 0 mm | - | 46 W/m² | - |
| 1777641696 | 5° C | 91% | 1012.5 hPa | 0 mm | - | 25 W/m² | - |
| 1777641391 | 5° C | 92% | 1012.5 hPa | 0 mm | - | 20 W/m² | - |
| 1777641086 | 5° C | 92% | 1012.4 hPa | 1.78 mm | - | 17 W/m² | - |
| 1777640783 | 5° C | 91% | 1012.6 hPa | 1.78 mm | - | 20 W/m² | - |
| 1777640480 | 5° C | 91% | 1012.4 hPa | 1.78 mm | - | 31 W/m² | - |
| 1777640177 | 5° C | 90% | 1012.2 hPa | 1.78 mm | - | 46 W/m² | - |
| 1777639873 | 5° C | 90% | 1012.3 hPa | 0 mm | - | 52 W/m² | - |
| 1777639571 | 5° C | 89% | 1012 hPa | 0 mm | - | 44 W/m² | - |
| 1777639268 | 5° C | 90% | 1012.4 hPa | 0 mm | - | 23 W/m² | - |
* Rain latest hour (hover to see other rain measurements)
** Current wind speed in m/s (hover to see current wind gust speed)